Location: De Platvoet
(52.2667°N, 6.1667°E)
Time: 04:43:19
(UTC+00:00)

Cosmos 1833 - Pass Details

Date: 15 May 2026
Orbit: 833 x 865 km, 70.9° (Epoch: 6 June)

Event Time Altitude Azimuth Distance (km) Brightness Sun altitude
Exits shadow 21:44:11 10° 200° (SSW) 2,455 6.2 -15.0°
Maximum altitude 21:49:47 73° 117° (ESE) 880 4.1 -15.3°
Drops below altitude 10° 21:55:24 10° 34° (NE) 2,457 7.0 -15.7°
Sets 21:57:50 0° 33° (NNE) 3,393 7.8 -15.8°
